User: anonymous   Login
Location: Caltech
(34.1382°N, 118.1253°W)
Time: 10:28:20
(UTC-07:00)
Language:

TITAN 4B R/B - Orbit

View from above orbital plane
View from above orbital plane
View from above satellite
View from above satellite

Ground track
Ground track

The orbit data is extracted from the following two-line orbital elements,

1 28647U 05016B   15211.08421238 0.00002400  00000-0  14360-3 0    03
2 28647  56.9966 286.3491 0135056 167.3152 192.6848 15.03179239    06
Epoch (UTC): 30 July 2015 02:01:15
Eccentricity: 0.0135056
inclination: 56.9966°
perigee height: 463 km
apogee height: 651 km
right ascension of ascending node: 286.3491°
argument of perigee: 167.3152°
revolutions per day: 15.03179239
mean anomaly at epoch: 192.6848°
orbit number at epoch: 0

The dashed part of the orbit path shows where the satellite is in the earth's shadow,  

DLR